Regional Weather Roundup
Issued by NWS

Home | Current Version | Previous Version | Text Only | Print | Product List | Glossary On
Versions: 1 2 3 4 5 6 7 8 9 10 11 12 13 14 15 16 17 18 19 20 21 22 23 24 25 26 27 28 29 30 31 32 33 34 35 36 37 38 39 40 41 42 43 44 45 46
000
ASUS46 KPQR 220810
RWROR

OREGON REGIONAL WEATHER ROUNDUP
NATIONAL WEATHER SERVICE PORTLAND OR
100 AM PDT FRI MAY 22 2015

NOTE: "FAIR" INDICATES FEW OR NO CLOUDS BELOW 12,000 FEET WITH
NO SIGNIFICANT WEATHER AND/OR OBSTRUCTIONS TO VISIBILITY.

ORZ001>013-220900-
NORTHWEST OREGON


CITY           SKY/WX    TMP DP  RH WIND       PRES   REMARKS
ASTORIA        CLOUDY    53  50  89 W5        29.97S FOG
NEWPORT        CLOUDY    52  52 100 CALM      30.02S FOG
PORTLAND       CLOUDY    58  51  78 NW8       29.93R
VANCOUVER WA   CLOUDY    57  49  74 NW6       29.92S
SCAPPOOSE      CLOUDY    55  49  80 N8        29.92R
HILLSBORO      MOCLDY    58  52  80 NW5       29.92R
AURORA         LGT RAIN  55  53  93 W5        29.94S FOG
MCMINNVILLE    MOCLDY    54  51  90 S6        29.94R
SALEM          LGT RAIN  56  52  86 NW3       29.95R
CORVALLIS      CLOUDY    54  48  82 NW12      29.96S
EUGENE         CLOUDY    55  51  86 SW10      29.97R
$$

ORZ021-028-220900-
SOUTHWEST OREGON


CITY           SKY/WX    TMP DP  RH WIND       PRES   REMARKS
NORTH BEND     CLOUDY    54  54 100 NW5       30.02R
BROOKINGS      CLOUDY    54  54 100 CALM      30.00S FOG
ROSEBURG       CLOUDY    59  51  75 N7        29.97R
SEXTON SUMMIT  FOG       48  48 100 CALM      29.97S VSB<1/4
MEDFORD        CLOUDY    59  56  89 CALM      29.94R
$$

ORZ014>016-041-220900-
COLUMBIA GORGE


CITY           SKY/WX    TMP DP  RH WIND       PRES   REMARKS
TROUTDALE      CLOUDY    60  50  69 VRB3      29.91R
THE DALLES     MOCLDY    68  57  68 MISG      29.80F
$$

ORZ029>031-041-044-049-050-061>064-502-503-505>511-220900-
EASTERN OREGON


CITY           SKY/WX    TMP DP  RH WIND       PRES   REMARKS
REDMOND        CLOUDY    51  50  96 SW5       29.92S
BEND           MOCLDY    50  50 100 SW3       29.94S
PRINEVILLE     FOG       50  50 100 CALM      29.92S VSB 1/4
KLAMATH FALLS  CLOUDY    51  44  77 W8        29.95S
LAKEVIEW       CLOUDY    48  45  87 S5        29.98R
HERMISTON      PTCLDY    61  52  72 S6        29.80R
PENDLETON      PTCLDY    58  51  78 SE8       29.83S
JOHN DAY       CLOUDY    52  49  89 CALM      29.92R
MEACHAM        CLOUDY    49  46  90 CALM      29.90S
LA GRANDE      PTCLDY    52  41  66 CALM      29.87R
BAKER CITY     CLEAR     49  47  93 S3        29.89S
BURNS          MOCLDY    46  43  89 W7        29.92S
ROME             N/A     50  44  80 SE3       29.89S
ONTARIO        PTCLDY    56  50  80 W3        29.86S
$$



USA.gov is the U.S. government's official web portal to all federal, state and local government web resources and services.